Location: Buchloe
(48.0161°N, 10.7316°E)
Time: 14:54:18
(UTC+01:00)

ISS - Pass Details

Date: 02 December 2021
Orbit: 413 x 422 km, 51.6° (Epoch: 27 January)

Event Time Altitude Azimuth Distance (km) Brightness Sun altitude
Rises 19:19:39 0° 292° (WNW) 2,384 1.1 -28.2°
Reaches altitude 10° 19:21:48 10° 287° (WNW) 1,514 -0.1 -28.6°
Enters shadow 19:22:54 19° 280° (W) 1,094 -0.9 -28.8°
